Regional Weather Roundup
Issued by NWS

Home | Current Version | Previous Version | Graphics & Text | Print | Product List | Glossary On
Versions: 1 2 3 4 5 6 7 8 9 10 11 12 13 14 15 16 17 18 19 20 21 22 23 24 25 26 27 28 29 30 31 32 33 34 35 36 37 38 39 40 41 42 43 44 45 46 47 48 49 50
657
ASUS45 KTFX 231710
RWRMT
MONTANA REGIONAL WEATHER ROUNDUP
NATIONAL WEATHER SERVICE GREAT FALLS MT
1100 AM MDT SUN APR 23 2017

NOTE: "FAIR" INDICATES FEW OR NO CLOUDS BELOW 12000 FEET WITH NO
SIGNIFICANT WEATHER AND/OR OBSTRUCTIONS TO VISIBILITY.

MTZ001>007-043-231800-
WEST OF THE DIVIDE

CITY           SKY/WX    TMP DP  RH WIND       PRES   REMARKS
KALISPELL      PTSUNNY   51  39  63 S12       29.80F
MISSOULA       LGT RAIN  44  40  85 W8        29.86S
BUTTE          MOSUNNY   51  31  46 NE8       29.78F
MULLAN PASS    CLOUDY    36  32  85 VRB3      29.83S
ANACONDA         N/A     45  36  70 N3        29.78F
DEER LODGE       N/A     45  37  76 N5        29.81F
EUREKA           N/A     54  37  54 SE7       29.78F
HAMILTON         N/A     43  37  81 NE12      29.85S
LIBBY            N/A     50  41  71 N3        29.79F
PLAINS           N/A     52  39  61 CALM      29.85F
$$

MTZ008-052>055-231800-
SOUTHWEST MONTANA

CITY           SKY/WX    TMP DP  RH WIND       PRES   REMARKS
BOZEMAN        PTSUNNY   56  37  49 SE10      29.77F
DILLON         CLOUDY    56  30  37 W14G20    29.77F
W YELLOWSTONE  CLOUDY    36  34  93 CALM      29.89F
ENNIS          MOSUNNY   50  37  62 S20G25    29.84F
THREE FORKS      N/A     59  59 100 S14       29.77F
TWIN BRIDGES     N/A     55  31  40 S10       29.79F
$$

MTZ009-010-012-014-046-048-049-054-231800-
EAST SLOPES AND CENTRAL MONTANA

CITY           SKY/WX    TMP DP  RH WIND       PRES   REMARKS
CUT BANK       CLOUDY    44  41  89 S8        29.77F
GREAT FALLS    LGT RAIN  43  41  93 NW5       29.79S FOG
MALMSTROM AFB  DRIZZLE   44  42  92 W7        29.79S
HELENA         CLOUDY    47  40  76 VRB3      29.77F
AUGUSTA        LGT RAIN  42  41  94 NW5       29.78F
BOWMANS CRNR   LGT RAIN  42  39  90 SW3       29.77S
CHOTEAU          N/A     43  43 100 NW5       29.80F FOG
FAIRFIELD      LGT RAIN  42  41  94 N5        29.78F
POWER          LGT RAIN  41  41  98 N9        29.77F
RAYNESFORD     DRIZZLE   46  43  89 NW10      29.78S
ULM            LGT RAIN  44  42  94 N5        29.79S
$$

MTZ011-013-016-021-045-047-050-051-231800-
NORTH CENTRAL MONTANA

CITY           SKY/WX    TMP DP  RH WIND       PRES   REMARKS
HAVRE          CLOUDY    46  39  76 E18       29.78F
LEWISTOWN      CLOUDY    55  33  43 W6        29.73F
N BAR RANCH    CLOUDY    54  39  58 SE13      29.77S
CHINOOK          N/A     39  37  93 E17G23    29.81F WCI  30
DENTON         PTSUNNY   51  43  74 NE13G23   29.71F
FORT BENTON      N/A    N/A N/A N/A MISG      29.80R
GEYSER         PTSUNNY   51  38  59 NW6       29.75F
GRASS RANGE      N/A     47  42  82 NE7       29.72F
JUDITH GAP       N/A     53  37  53 SE10      29.74F
STANFORD       PTSUNNY   52  40  62 N12       29.74F
WINIFRED       PTSUNNY   44  43  97 E14       29.74F
$$

MTZ017>020-022>027-061-062-231800-
NORTHEAST MONTANA

CITY           SKY/WX    TMP DP  RH WIND       PRES   REMARKS
GLASGOW        CLOUDY    37  32  82 E18G28    29.88S WCI  27
JORDAN           N/A     42  37  82 SE15      29.81F
SIDNEY         CLOUDY    36  29  75 SE20      29.96S WCI  25
WOLF POINT     CLOUDY    39  32  76 E20       29.93S WCI  29
MALTA          CLOUDY    39  34  81 E15       29.85S WCI  31
PLENTYWOOD       N/A     30  25  80 E16       29.99S WCI  19
POPLAR           N/A     34  30  86 E17       29.94F WCI  23
SCOBEY           N/A     29  22  75 E16       29.93F WCI  17
$$

MTZ028>42-056>058-231800-
SOUTHCENTRAL AND SOUTHEAST MONTANA

CITY           SKY/WX    TMP DP  RH WIND       PRES   REMARKS
BAKER          CLOUDY    34  32  92 E18       29.86F WCI  23
BILLINGS       PTSUNNY   55  39  54 SW5       29.75F
LIVINGSTON     CLOUDY    50  39  66 S14       29.78F
MILES CITY     CLOUDY    45  38  76 NE13      29.81F
BIG TIMBER     SUNNY     54  37  54 W14       29.80S
EKALAKA          N/A     43  36  76 E10       29.82F
LAUREL           N/A     53  39  59 E1        29.76S
ROUNDUP          N/A     58  40  51 S6        29.68F
$$

REGIONAL REPORTS...DAKOTAS

CITY           SKY/WX    TMP DP  RH WIND       PRES   REMARKS
WILLISTON      CLOUDY    32  25  75 E17       30.01S WCI  21
MINOT          LGT SNOW  30  27  88 E14       30.07F VSB 1   WCI  19
DICKINSON      CLOUDY    32  27  81 E18       29.90F WCI  20
BEACH          CLOUDY    32  32 100 SE18      29.92S WCI  20
TIOGA          CLOUDY    28  28 100 E25G31    30.02F WCI  14
WATFORD CITY     N/A     30  30 100 E16G24    29.97F WCI  19
BISMARCK       CLOUDY    39  32  76 E20G29    29.99F WCI  29
GRAND FORKS    LGT SNOW  36  24  62 E15G23    30.19F WCI  27
FARGO          CLOUDY    38  32  79 NE17G26   30.09F WCI  28
BUFFALO SD       N/A     36  32  85 E17       29.78F WCI  26
RAPID CITY     CLOUDY    58  40  51 N6        29.80S
$$

REGIONAL REPORTS...WYOMING/IDAHO/WASHINGTON

CITY           SKY/WX    TMP DP  RH WIND       PRES   REMARKS
GILLETTE       SUNNY     61  34  36 SE5       29.80F
SHERIDAN       MOSUNNY   64  40  41 NE8       29.75F
BUFFALO WY     SUNNY     62  30  29 SE12      29.80F
CODY           SUNNY     58  29  33 VRB3      29.79F
YELLOWSTONE LA   N/A     35  30  82 VRB6      29.92F WCI  30
IDAHO FALLS    CLOUDY    53  36  52 CALM      29.87F
SALMON         CLOUDY    48  39  71 S10       29.79R
BOISE          PTSUNNY   53  43  68 NW7       29.85F
SPOKANE        CLOUDY    49  39  68 SW18      29.85S
$$

REGIONAL REPORTS...ALBERTA

CITY           SKY/WX    TMP DP  RH WIND       PRES   REMARKS
EDMONTON       LGT RAIN  30  27  86 E14       29.88F WCI  20
CALGARY        CLOUDY    39  36  87 CALM      29.75F
LETHBRIDGE     CLOUDY    45  39  81 SW5       29.75F
MEDICINE HAT   CLOUDY    46  41  81 W5        29.78F
WATERTON GATE    N/A     48  30  49 SW12G17     N/A
CARDSTON         N/A     52  39  62 S2          N/A
MILK RIVER       N/A     48  41  76 S8          N/A
$$

REGIONAL REPORTS...SASKATCHEWAN

CITY           SKY/WX    TMP DP  RH WIND       PRES   REMARKS
SWIFT CURRENT  CLOUDY    34  30  86 SE26G36   29.85F WCI  21
REGINA         CLOUDY    36  19  51 SE20G26   30.04F WCI  25
SASKATOON      CLOUDY    37  27  65 E17       30.04F WCI  28
CYPRESS HILLS    N/A     32  30  93 SE13        N/A  WCI  22
VAL MARIE        N/A     34  32  93 SE16G22     N/A  WCI  23
$$




USA.gov is the U.S. government's official web portal to all federal, state and local government web resources and services.